www.pogodaiklimat.ru

Погода и климат >> Архив погоды >> Индонезия >> Самаринда


ПОГОДА в Самаринде

  • Прогноз погоды в Самаринде
  • Монитор погоды в Самаринде

АРХИВ ПОГОДЫ в Самаринде

Время (UTC), дата Ветер
(напр.,м/с)
 
Видим.   Явления Облачность Т
(С)
Тd
(С)
f
(%)
Тe
(С)
Тes
(С)
Комфортность P
(гПа)
Po
(гПа)
Тmin
(С)
Tmax
(С)
R
(мм)
R24
(мм)
S
(см)
00 11.09 ЮЗ 2 8000 м 8/5 600 м
[Cu med, cong As op Ci fib]
+27.2 +22.4 75 +36 +37 очень
душно
1015.0 1013.8 +23.4
03 11.09 ЮЗ 2 10 км 6/4 540 м
[Cu hum As trans Ci fib]
+32.0 +21.7 55 +41 +50 опасность
перегрева
1014.2 1013.0
06 11.09 ЮВ 4 10 км 8/5 540 м
[Cu med, cong As op Ci fib]
+33.2 +23.1 55 +43 +47 опасность
перегрева
1010.5 1009.3
09 11.09 ЮВ 4 10 км 6/4 540 м
[Cu med, cong As op Ci fib]
+30.6 +22.4 62 +40 +41 очень
душно
1010.3 1009.1
12 11.09 Ю 2 8000 м 6/4 540 м
[Cu med, cong As op Ci fib]
+27.6 +22.9 76 +37 +37 очень
душно
1012.6 1011.4 +33.6
00 12.09 ЮЗ 4 6000 м дым {туман} 6/4 600 м
[Cu hum As trans Ci fib]
+26.6 +22.4 78 +35 +37 очень
душно
1014.6 1013.4 +24.0
03 12.09 ЮЗ 4 8000 м дым {туман} 8/5 540 м
[Cu med, cong As op Ci fib]
+30.8 +21.3 57 +39 +44 очень
душно
1013.9 1012.7
06 12.09 Ю 3 10 км дым {туман} 9/5 540 м
[Cu med, cong As op Ci fib]
+33.2 +20.7 48 +40 +45 очень
душно
1011.0 1009.8
09 12.09 Ю 4 10 км 8/4 540 м
[Cu med, cong As op Ci fib]
+30.2 +21.3 59 +38 +39 очень
душно
1010.4 1009.2
12 12.09 Ю 2 8000 м 8/4 540 м
[Cu med, cong As op Ci fib]
+27.2 +21.8 72 +35 +35 очень
душно
1012.2 1011.0 +33.2
00 13.09 ЮЗ 28 5000 м дым {туман} 10/6 500 м
[Sc diur, vesp As op]
+26.2 +22.6 81 +35 +35 очень
душно
1014.3 1013.1 +24.4
03 13.09 Ю 3 7000 м дым {туман} 10/5 540 м
[Cu hum As op Ci fib]
+29.6 +22.9 67 +39 +43 очень
душно
1013.7 1012.5
06 13.09 Ю 4 7000 м дым {туман} 10/5 540 м
[Cu hum As op]
+31.4 +20.6 53 +38 +40 очень
душно
1010.8 1009.6
09 13.09 Ю 4 8000 м дым {туман} 9/5 540 м
[Cu hum As op Ci fib]
+30.4 +19.4 52 +36 +37 очень
душно
1010.9 1009.7
12 13.09 Ю 2 7000 м дым {туман} 8/4 540 м
[Cu hum As op Ci fib]
+27.4 +21.0 68 +34 +34 очень
душно
1012.5 1011.3 +33.6
00 14.09 ЮЗ 2 6000 м дым {туман} 8/3 540 м
[Cu hum As op Ci fib]
+25.6 +22.3 82 +33 +36 очень
душно
1014.3 1013.1 +23.4
03 14.09 ЮЗ 3 6000 м дым {туман} 9/4 540 м
[Cu hum As op Ci fib]
+30.6 +21.7 59 +39 +45 очень
душно
1013.6 1012.4
06 14.09 ЮЗ 3 2000 м дым {туман} 10/5 540 м
[Cu hum As op]
+33.0 +21.2 50 +41 +42 опасность
перегрева
1010.9 1009.7
09 14.09 Ю 3 3000 м дым {туман} 10/5 540 м
[Cu hum As op]
+31.8 +21.5 54 +40 +40 очень
душно
1009.9 1008.7
12 14.09 Ю 2 7000 м дым {туман} 10/5 540 м
[Cu hum As op]
+27.4 +22.3 74 +36 +36 очень
душно
1012.3 1011.1 +33.4
00 15.09 ЮЗ 2 5000 м дым {туман} 10/5 540 м
[Cu med, cong As op]
+26.2 +22.6 81 +35 +35 очень
душно
1013.4 1012.2 +23.8
03 15.09 ЮЗ 2 3000 м дым {туман} 10/5 540 м
[Cu med, cong As op]
+31.2 +22.4 60 +41 +43 опасность
перегрева
1012.0 1010.8
06 15.09 В 3 2000 м дым {туман} 10/5 540 м
[Cu med, cong As op]
+34.0 +20.0 44 +40 +42 очень
душно
1008.6 1007.4
09 15.09 ЮВ 4 3000 м дым {туман} 10/5 540 м
[Cu med, cong As op Ci fib]
+31.0 +22.8 62 +41 +41 опасность
перегрева
1008.5 1007.4
12 15.09 ЮВ 2 2000 м дым {туман} 9/5 540 м
[Cu med, cong As op Ci fib]
+28.4 +22.8 72 +38 +38 очень
душно
1011.1 1009.9 +34.6
00 16.09 Ю 2 1000 м дым {туман} 10/5 540 м
[Cu med, cong As op]
+26.0 +23.3 85 +35 +35 очень
душно
1013.0 1011.8 +24.4
03 16.09 В 2 3000 м дым {туман} 8/4 540 м
[Cu med, cong As op]
+30.8 +21.6 58 +39 +45 очень
душно
1012.0 1010.8
06 16.09 ЮВ 3 2000 м дым {туман} 8/4 540 м
[Cu med, cong As op]
+32.6 +21.7 53 +41 +45 опасность
перегрева
1009.2 1008.0
09 16.09 ЮВ 3 2500 м дым {туман} 8/4 540 м
[Cu med, cong As op]
+31.2 +22.7 61 +41 +42 опасность
перегрева
1008.4 1007.2
12 16.09 Ю 2 2000 м дым {туман} 8/4 540 м
[Cu med, cong As op]
+28.0 +23.6 77 +38 +38 очень
душно
1010.5 1009.3 +32.8
00 17.09 ЮЗ 1 1000 м дым {туман} 10/10 540 м
[]
+27.0 +24.0 84 +37 +37 очень
душно
1013.3 1012.1 +25.0
03 17.09 Ю 2 2500 м дым {туман} 10/5 540 м
[Cu med, cong As op]
+31.2 +23.4 63 +42 +44 опасность
перегрева
1012.5 1011.3
06 17.09 Ю 3 3000 м дым {туман} 10/5 540 м
[Cu med, cong As op]
+32.4 +22.8 57 +42 +44 опасность
перегрева
1010.0 1008.8
09 17.09 Ю 3 3000 м дым {туман} 10/5 540 м
[Cu med, cong As op]
+30.2 +22.6 64 +40 +40 очень
душно
1010.0 1008.8
12 17.09 Ю 1 3000 м дым {туман} 10/5 540 м
[Cu med, cong As op]
+28.0 +23.6 77 +38 +38 очень
душно
1011.8 1010.6 +32.4

 

Местоположение метеостанции Самаринда (Индонезия): широта -0.62 долгота 117.15 высота над уровнем моря 230 м.

В архиве по умолчанию представлена погода в Самаринде за последнюю неделю. Архивные данные за месяц целиком и за предыдущие месяцы, начиная с января 2011 года, Вы можете получить, выбрав интересующий диапазон дат из раскрывающегося списка и нажав кнопку "Ввод!".


*Определитесь, кто Вы:
робот инопланетянин человек

Внимание! Время в таблицах - всемирное. Для получения местного времени необходимо прибавить поправку, которая равна 8 ч.

Смотрите также архив погоды в соседних городах и на ближайших метеорологических станциях:

Погода в Баликпапане (Индонезия) (77 км)
Погода в Муаратевехе (Индонезия) (253 км)
Погода в Палу (Индонезия) (287 км)
Погода в Маджене (Индонезия) (293 км)
Погода в Танджунгредепе (Индонезия) (307 км)
Погода в Котабару (Индонезия) (326 км)
Погода в Паоанкарая (Индонезия) (353 км)
Погода в Танджунгселоре (Индонезия) (386 км)
Погода в Посо (Индонезия) (407 км)
Погода в Банджармасине (Индонезия) (411 км)

Пояснения к столбцам:

Ветер - указаны скорость ветра в м/с - средняя за 10 мин, порывы в срок и между сроками (в фигурных скобках) и направление, откуда дует ветер: С - северный, СВ - северо-восточный, В - восточный, ЮВ - юго-восточный, Ю - южный, ЮЗ - юго-западный, З - западный, СЗ - северо-западный.
Видимость - горизонтальная дальность видимости в метрах или километрах. При видимости от 1 до 10 км при отсутствии осадков обычно наблюдается дымка, при ухудшении видимости до 1 км и менее - туман. В сухую погоду видимость может ухудшаться дымом, пылью или мглою.
Явления - указаны атмосферные явления, наблюдавшиеся в срок или в последний час перед сроком; фигурными скобками обозначены явления, наблюдавшиеся между сроками (за 1-3 часа до срока); квадратными скобками обозначены град или гололедные отложения с указанием их диаметра в мм.
Облачность - указаны через наклонную черту общая и нижняя облачность в баллах и высота нижней границы облаков в метрах; квадратными скобками обозначены формы облаков: Ci - перистые, Cs - перисто-слоистые, Cc - перисто-кучевые, Ac - высококучевые, As - высокослоистые, Sc - слоисто-кучевые, Ns - слоисто-дождевые, Cu - кучевые, Cb - кучево-дождевые. Подробнее классификацию облаков см. в Атласе облаков (PDF).
T - Температура воздуха - температура, измеренная на высоте 2 м над землей.
Td - Температура точки росы - температура, при понижении до которой содержащийся в воздухе водяной пар достигнет насыщения.
f - Относительная влажность воздуха - влажноcть воздуха, измеренная на высоте 2 м над землей.
Te - Эффективная температура - температура, которую ощущает одетый по сезону человек в тени. Характеристика душности погоды. При расчете учитывается влияние влажности воздуха и скорости ветра на теплоощущения человека.
Tes - Эффективная температура на солнце - температура, которую ощущает человек, с поправкой на солнечный нагрев. Характеристика знойности погоды. Зависит от высоты солнца над горизонтом, облачности и скорости ветра. Ночью, в пасмурную погоду, а также при ветре 12 м/с и более поправка равна нулю.
P - Атмосферное давление - приведенное к уровню моря атмосферное давление.
Po - Атмосферное давление - измеренное на уровне метеостанции атмосферное давление.
Tmin - Минимальная температура - минимум температуры воздуха на высоте 2 м над землей.
Tmax - Максимальная температура - максимум температуры воздуха на высоте 2 м над землей.
R - Количество осадков - Количество выпавших осадков за период времени, мм. При наведении курсора мыши на число - период времени, за который выпало указанное количество осадков.
R24 - Количество осадков - Количество выпавших осадков за 24 часа, мм.
S - Снежный покров - Высота снежного покрова, см. При наведении курсора мыши на число - состояние снежного покрова и степень покрытия местности в баллах.